Welcome to the New NWS' Forecast!
Most changes are behind the scenes, but click here for differences you might notice.

Regional Weather Roundup (RWR)

Issued by Gray - Portland, ME (GYX)

                            
908 
ASUS41 KGYX 131310
RWRGYX
WEATHER ROUNDUP FOR MAINE AND NEW HAMPSHIRE
NATIONAL WEATHER SERVICE GRAY ME
900 AM EDT MON AUG 13 2018

MEZ002-005-006-010-012-015-018-020-021-024-026-027-029-131400-
MAINE
  
CITY           SKY/WX    TMP DP  RH WIND       PRES   REMARKS
PORTLAND       CLOUDY    67  66  97 NE6       30.14R FOG              
SANFORD        CLOUDY    66  65  96 NE6       30.14R FOG              
BAR HARBOR     CLOUDY    66  60  81 E6        30.16S                  
WISCASSET      CLOUDY    68  67  96 E3        30.14F                  
ROCKLAND       CLOUDY    67  63  87 VRB7      30.14S                  
FRYEBURG       CLOUDY    67  66  97 CALM      30.15S                  
LEWISTONAUBURN CLOUDY    68  61  78 NE6       30.15R                  
AUGUSTA        CLOUDY    66  63  90 N6        30.15S                  
WATERVILLE     CLOUDY    67  62  84 NE5       30.13F                  
BANGOR         CLOUDY    70  62  76 E5        30.15F                  
GREENVILLE       N/A     70  62  76 S3        30.15F                  
MILLINOCKET    FAIR      71  60  68 VRB3      30.16S                  
HOULTON        NOT AVBL                                               
PRESQUE ISLE   FAIR      70  63  78 NW3       30.14S                  
FRENCHVILLE    FAIR      70  62  76 CALM      30.13F                  
CARIBOU        FAIR      71  63  75 SW5       30.12F                  
$$

NHZ002-005-008-009-011-012-014-131400-
NEW HAMPSHIRE
  
CITY           SKY/WX    TMP DP  RH WIND       PRES   REMARKS
PORTSMOUTH     CLOUDY    67  65  93 NE7       30.11R FOG              
ROCHESTER      CLOUDY    67  67 100 NE5       30.12S                  
NASHUA         CLOUDY    67  67 100 NE5       30.12S FOG              
MANCHESTER     CLOUDY    69  67  93 E6        30.10S                  
CONCORD        CLOUDY    68  65  90 NE6       30.12S                  
LACONIA        CLOUDY    67  64  90 NE6       30.14R                  
PLYMOUTH       CLOUDY    67  64  89 CALM      30.13S                  
BERLIN         CLOUDY    63  63 100 CALM      30.17F                  
WHITEFIELD     FAIR      65  64  97 CALM      30.15F                  
JAFFREY        CLOUDY    67  67 100 VRB3      30.14S FOG              
KEENE          CLOUDY   N/A N/A N/A VRB6      30.11F                  
LEBANON        CLOUDY    70  64  81 N3        30.13S                  
MT WASHINGTON  FOG       54  54 100 SE9         N/A  VSB 0            
$$

VTZ005-007-008-131400-
VERMONT
  
CITY           SKY/WX    TMP DP  RH WIND       PRES   REMARKS
ST JOHNSBURY     N/A     71  65  81 MISG      30.12F                  
MONTPELIER     FAIR      69  65  86 CALM      30.19S                  
BURLINGTON     PTSUNNY   76  64  66 SE6       30.10F                  
$$

MAZ007-012-024-CTZ003-RIZ002-NYZ038-NYZ072-131400-
SOUTHERN NEW ENGLAND AND NY
  
CITY           SKY/WX    TMP DP  RH WIND       PRES   REMARKS
BOSTON         FOG       69  67  93 N10       30.09S VSB 1/2          
WORCESTER      LGT RAIN  65  65 100 NE7       30.11F VSB<1/4          
NANTUCKET      CLOUDY    72  70  93 E8        30.06S                  
PROVIDENCE     CLOUDY    70  69  97 NE8       30.07F                  
HARTFORD       CLOUDY    71  68  90 N8        30.07S                  
ALBANY         CLOUDY    71  66  84 N5        30.10R                  
NEW YORK CITY  LGT RAIN  74  70  87 NE18      30.01S FOG              
$$

ANZ081-ANZ082-ANZ150-NHZ014-MEZ023>029-131400-
COASTAL MARINE OBSERVATIONS
  
STATION/POSITION TIME  TEMP    WIND        PRES    WAVE
                       AIR SEA DIR/SP/G            HT/PER
                 (UTC) (F)     (DEG/KT/KT) (MB)    (FT/S)
MOUNT DESERT ROC 1300   61      50/ 11/ 12 1020.6S
MATINICUS ROCK   1200   60      60/ 12/ 14 1020.0R
ISLE OF SHOALS   1200   64      30/ 15/ 18 1018.9S
JEFFREYS LEDGE   1236      71                N/A     2/ 4
$$

.............KEY..............
   WCI - WIND CHILL
   TC  - TEMPERATURE IN CELSIUS
   VSB - VISIBILITY IN MILES
   HX  - HEAT INDEX
   FAIR- INDICATES FEW OR NO CLOUDS BELOW 12,000 FT, WITH NO 
         SIGNIFICANT WEATHER AND/OR OBSTRUCTIONS TO VISIBILITY.